Location: Ferchesar
(52.6477°N, 12.4298°E)
Time: 03:27:01
(UTC+01:00)

Vanguard 3 - Pass Details

Date: 15 December 2021
Orbit: 508 x 3260 km, 33.3° (Epoch: 21 January)

Event Time Altitude Azimuth Distance (km) Brightness Sun altitude
Rises 02:33:06 0° 244° (WSW) 6,116 - -49.4°
Reaches altitude 10° 02:37:05 10° 237° (WSW) 5,414 - -48.9°
Maximum altitude 02:52:29 40° 176° (S) 4,139 - -46.9°
Exits shadow 02:53:39 40° 169° (S) 4,170 10.4 -46.7°
Drops below altitude 10° 03:09:37 10° 116° (ESE) 5,997 11.9 -44.5°
Sets 03:14:19 0° 110° (ESE) 6,809 12.4 -43.8°
